Current Version              Previous Version:    01  02  03  04  05  06  07  08  09  10  11  12  13  14  15  16  17  18  19  20  21  22  23  24  25  26  27  28  29  30  
   31  32  33  34  35  36  37  38  39  40  41  42  43  44  45  46  47  48  49  50  51  52  53  54  55  56  57  58  59  60  

[Printable]
410
ASUS44 KLUB 021510
RWRTX
WEST TEXAS WEATHER ROUNDUP
NATIONAL WEATHER SERVICE LUBBOCK TX
1000 AM CDT TUE SEP 02 2014

NOTE: "FAIR" INDICATES FEW OR NO CLOUDS BELOW 12,000 FEET WITH NO
SIGNIFICANT WEATHER AND/OR OBSTRUCTIONS TO VISIBILITY.

TXZ004-006>008-010-012-014-016-OKZ002-021600-
TEXAS PANHANDLE/OKLAHOMA PANHANDLE

CITY           SKY/WX    TMP DP  RH WIND       PRES   REMARKS
AMARILLO       MOSUNNY   74  64  71 NE8       30.03F
BORGER         PTSUNNY   73  65  75 NE3       30.01S
CANADIAN       SUNNY     77  70  78 SE14G20   29.96S
DALHART        FOG       68  65  90 N15       30.10R VSB 1
DUMAS          CLOUDY    67  65  94 NE9       30.07R FOG
GUYMON         PTSUNNY   73  64  73 N7        30.04S
HEREFORD       MOSUNNY   75  66  73 N10       30.05S
PAMPA          SUNNY     74  65  72 SE12      30.01S
PERRYTON       MOSUNNY   76  67  72 E9        30.02R
$$

TXZ026-029-035-045-048-021600-
SOUTHERN PANHANDLE/SOUTH PLAINS/ROLLING PLAINS

CITY           SKY/WX    TMP DP  RH WIND       PRES   REMARKS
CHILDRESS      SUNNY     84  64  50 SW5       29.94R
SEMINOLE       SUNNY     82  61  49 S14       30.00S
LUBBOCK        MOSUNNY   82  60  47 SW15      29.99R
PLAINVIEW      SUNNY     80  62  53 W15       29.99S
SNYDER         SUNNY     80  69  69 S15G22    29.97S
$$

TXZ052-054-060>062-072-078-127-140-154-169-021600-
PERMIAN BASIN/CONCHO VALLEY/BIG COUNTRY/EDWARDS PLATEAU

CITY           SKY/WX    TMP DP  RH WIND       PRES   REMARKS
ABILENE        SUNNY     82  69  64 SW17G26   29.95F
BIG SPRING     SUNNY     82  66  59 S22       29.98F
BRADY          SUNNY     81  70  69 S13       29.98S
BROWNWOOD      SUNNY     82  68  61 S14       29.97S
JUNCTION       MOSUNNY   81  68  64 S15       29.99R
MIDLAND        SUNNY     83  67  58 S16       29.96S
ODESSA         SUNNY     83  65  54 S20       29.97F
SAN ANGELO     MOSUNNY   81  68  64 S15G23    29.97S
SONORA         MOSUNNY   79  68  69 S14G20    30.03S
SWEETWATER     SUNNY     82  68  60 S23       29.99S
WINK           SUNNY     84  62  47 SE13      29.94S
$$

TXZ055-058-074-075-080-082-021600-
FAR WEST/SOUTHWEST MOUNTAINS/TRANS PECOS

CITY           SKY/WX    TMP DP  RH WIND       PRES   REMARKS
ALPINE         SUNNY     83  58  42 S3        30.14S
DRYDEN           N/A     85  70  60 SE13      29.95F
EL PASO        SUNNY     79  45  29 S7        30.02R
FORT STOCKTON  SUNNY     84  61  45 S12       29.97F
GUADALUPE PASS SUNNY     74  41  30 SW9       30.15R
MARFA          SUNNY     79  59  50 CALM      30.15R
PECOS          SUNNY     82  52  34 CALM      29.93S
$$

TXZ014-016-019-021>030-083-021600
TEXAS TECH WEST TEXAS MESONET/TEXAS PANHANDLE/NORTHERN SOUTH PLAINS

CITY           SKY/WX    TMP DP  RH WIND       PRES   REMARKS
ABERNATHY 5ENE   N/A     81  59  47 SW17      30.00S
AMARILLO 9NNE    N/A     73  65  76 N5        30.02S
AMARILLO 7SSE    N/A     72  64  75 N9        30.04S
AMHERST 1NE      N/A     79  60  51 SW9       30.02S
BOOTLEG 11WNW    N/A     72  62  71 N14       30.11S
CANADIAN 6E      N/A     78  68  72 E14       29.96S
CAPROCK CYN SP   N/A     85  60  43 W13       29.99R
CHILDRESS 2NNE   N/A     85  63  47 S5        29.93F
CLARENDON 2WSW   N/A     76  64  65 NE6       29.99F
CLAUDE 12SW      N/A     74  65  74 NE10      30.02S
DIMMITT 2NE      N/A     75  55  48 NW8       30.04S
FLOYDADA 2NNE    N/A     79  60  52 SW17      29.99R
FRIONA 2NE       N/A     73  62  69 N15       30.07S
GOODLETT 3W      N/A     87  62  44 W7        29.93S
HART 3N          N/A     76  61  60 W7        30.04R
HEREFORD 2NW     N/A     73  62  69 N10       30.06R
MCLEAN 1E        N/A     77  66  68 NE6       29.98S
MEMPHIS 1NE      N/A     81  65  58 N6        29.95R
MULESHOE 2SSW    N/A     78  59  52 W7        30.04S
OLTON 6S         N/A     79  59  49 SW13      30.02R
PALO DURO SP     N/A     75  65  70 N9        30.04R
PAMPA 2E         N/A     74  67  77 E10       30.00F
PLAINVIEW 1S     N/A     80  62  54 SW12      30.00R
SILVERTON 7ESE   N/A     82  61  47 W9        30.01R
TULIA 2ENE       N/A     79  61  54 W12       30.01F
TURKEY 2WSW      N/A     86  61  42 W6        29.97R
UMBARGER 3NNE    N/A     74  64  72 N8        30.05S
$$

TXZ033>036-039>041-045>048-021600
TEXAS TECH WEST TEXAS MESONET/SOUTH PLAINS

CITY           SKY/WX    TMP DP  RH WIND       PRES   REMARKS
AIKEN 3WSW       N/A     81  62  51 SW17      30.00S
ANDREWS 2NE      N/A     83  61  47 S14       29.98S
ANTON 6SSW       N/A     80  61  52 S10       30.00S
BROWNFIELD 2S    N/A     80  60  50 S13       30.00R
DENVR CTY 7WNW   N/A     77  57  49 S12       30.01S
GAIL 2ESE        N/A     82  67  59 S16       29.95S
LAMESA 2SE       N/A     80  66  62 S14       29.99S
LEVELLAND 4S     N/A     79  59  49 SW10      30.01R
LUBBOCK 3WNW     N/A     81  60  48 S9        29.99S
MORTON 1ENE      N/A     79  60  51 SW12      30.02S
ODONNELL 1N      N/A     79  64  59 S16       29.98S
PLAINS 3N        N/A     80  58  46 S12       30.02R
RALLS 1SE        N/A     80  63  56 S17       29.99S
REESE CENTER     N/A     80  59  48 SW14      30.00R
SEAGRAVES 1SW    N/A     81  61  49 S12       30.00S
SEMINOLE 2NNE    N/A     82  61  48 S13       29.99S
SLATON 2NE       N/A     80  63  57 S17       29.98F
SNYDER 3E        N/A     81  68  64 S14       29.96S
SUNDOWN 8SW      N/A     80  59  47 S13       30.02R
TAHOKA 3NNE      N/A     80  63  55 S16       29.98S
WOLFFORTH 6SSW   N/A     80  60  51 S18       29.99F
$$

TXZ031-032-036>038-042>044-021600-
TEXAS TECH WEST TEXAS MESONET/ROLLING PLAINS

CITY           SKY/WX    TMP DP  RH WIND       PRES   REMARKS
ASPERMONT 3NE    N/A     85  68  57 S14       29.92S
FLUVANNA 3WNW    N/A     80  65  60 S16       29.97S
GRAHAM 5SSW      N/A     80  64  56 S16       29.97S
GUTHRIE 10WSW    N/A     84  67  55 SW17      29.92S
HASKELL 1NW      N/A     85  66  52 S17       29.91S
JAYTON 1SSE      N/A     84  67  56 SW15      29.93S
KNOX CITY 3NW    N/A     85  66  52 S18       29.91S
LK A HENRY 1NW   N/A     84  66  54 SW16      29.94S
NORTHFIELD 1S    N/A     86  63  45 NW7       29.95R
ODELL 4ENE       N/A     83  69  61 E2        29.95S
PADUCAH 10SW     N/A     84  66  54 S16       29.90S
POST 1NE         N/A     84  63  48 S13       29.95S
RRING SPRGS 3N   N/A     85  64  49 S18       29.93S
SEYMOUR 3NW      N/A     85  68  55 S16       29.91S
SPUR 1W          N/A     83  64  52 S12       29.93F
WEINERT 2NNE     N/A     85  69  60 S16       29.91F
WHITE RVR 6NE    N/A     82  64  54 S15       29.96S
$$

TXZ052-054-060>062-072-078-127-140-154-169-021600-
TEXAS TECH WEST TEXAS MESONET/PERMIAN BASIN/
CONCHO VALLEY/BIG COUNTRY/EDWARDS PLATEAU

CITY           SKY/WX    TMP DP  RH WIND       PRES   REMARKS
JUNCTION 1SSW    N/A     82  69  65 S7        29.99S
MERTZON 3NNE     N/A     81  69  67 S8        29.98S
SAN ANGELO 7NW   N/A     81  67  62 S16       29.97S
STRLNG CT 4WSW   N/A     81  69  66 S12       29.98S
ST LAWRNCE 5SW   N/A     79  67  67 S18       29.98S
SWEETWATR 11SW   N/A     81  68  66 S18       29.98F
WALL 1E          N/A     80  67  65 S13       29.98S
$$

TXZ055-058-074-075-080-082-021600-
TEXAS TECH WEST TEXAS MESONET/FAR WEST/SOUTHWEST MOUNTAINS/TRANS PECOS

CITY           SKY/WX    TMP DP  RH WIND       PRES   REMARKS
PRSMN GAP BBNP   N/A     84  60  44 NE7       29.99S
GUADLPE MTN NP   N/A     85  34  16 NW16      30.15S
$$